Monroe, WI

8:36 AM CST on November 18, 2017 (GMT -0600)
Monroe Municipal

Weather History for KEFT - April, 2014

Change the Weather History Date:

Thursday, April 17, 2014

  Actual Average Record
Temperature  
Mean Temperature 47 °F -  
Max Temperature 55 °F 0 °F 78 °F (2016)
Min Temperature 37 °F - 28 °F (2001)
Degree Days  
Heating Degree Days 18    
Moisture  
Dew Point 35 °F    
Average Humidity 68    
Maximum Humidity 100    
Minimum Humidity 47    
Precipitation  
Precipitation 0.00 in - - ()
Sea Level Pressure  
Sea Level Pressure 30.13 in    
Wind  
Wind Speed 16 mph (WSW)    
Max Wind Speed 25 mph    
Max Gust Speed 32 mph    
Visibility 10 miles    
Events      
Averages and records for this station are not official NWS values.
T = Trace of Precipitation, MM = Missing Value Source: NWS Daily Summary

Daily Weather History Graph

Daily Weather History Graph

Search for Another Location

Airport or City:

Trip Planner

Search our weather history database for the weather conditions in past years. The results will help you decide how hot, cold, wet, or windy it might be!

Date:

Astronomy

Apr. 17, 2014 Rise Set
Actual Time 6:13 AM CDT 7:42 PM CDT
Civil Twilight 5:44 AM CDT 8:12 PM CDT
Nautical Twilight 5:08 AM CDT 8:47 PM CDT
Astronomical Twilight 4:31 AM CDT 9:25 PM CDT
Moon 10:31 PM CDT (4/17) 7:43 AM CDT (4/17)
Length of Visible Light 14h 27m
Length of Day
13h 28m
Waning Gibbous, 93% of the Moon is Illuminated
Apr 17
Waning Gibbous
Apr 22
Last Quarter
Apr 29
New
May 6
First Quarter
May 14
Full

Hourly Weather History & Observations

Time (CDT) Temp. Windchill Dew Point Humidity Pressure Visibility Wind Dir Wind Speed Gust Speed Precip Events Conditions
12:15 AM 44.6 °F 35.7 °F 28.9 °F 54% 30.04 in 10.0 mi SSE 24.2 mph 32.2 mph N/A   Overcast
12:35 AM 44.6 °F 36.4 °F 29.1 °F 55% 30.03 in 10.0 mi SSE 20.7 mph 27.6 mph N/A   Overcast
1:00 AM 44.2 °F 35.2 °F 29.3 °F 56% 30.03 in 10.0 mi SSE 24.2 mph 31.1 mph N/A   Overcast
1:15 AM 44.2 °F 35.9 °F 29.3 °F 56% 30.03 in 10.0 mi SSE 20.7 mph 28.8 mph N/A   Overcast
1:35 AM 43.9 °F 35.7 °F 29.3 °F 57% 30.03 in 10.0 mi SSE 19.6 mph 25.3 mph N/A   Overcast
1:55 AM 43.2 °F 35.6 °F 29.3 °F 58% 30.02 in 10.0 mi SSE 16.1 mph 23.0 mph N/A   Mostly Cloudy
2:15 AM 42.1 °F 34.9 °F 29.7 °F 61% 30.01 in 10.0 mi SSE 13.8 mph 20.7 mph N/A   Mostly Cloudy
2:35 AM 41.4 °F 34.3 °F 29.8 °F 64% 30.01 in 10.0 mi SE 12.7 mph - N/A   Mostly Cloudy
2:55 AM 41.2 °F 34.5 °F 30.0 °F 65% 30.00 in 10.0 mi SSE 11.5 mph 18.4 mph N/A   Overcast
3:15 AM 40.8 °F 33.3 °F 30.0 °F 65% 30.00 in 10.0 mi SSE 13.8 mph 18.4 mph N/A   Mostly Cloudy
3:35 AM 40.3 °F 33.0 °F 30.0 °F 67% 30.00 in 10.0 mi SSE 12.7 mph - N/A   Scattered Clouds
3:55 AM 40.5 °F 32.5 °F 30.0 °F 66% 30.00 in 10.0 mi SSE 15.0 mph 18.4 mph N/A   Scattered Clouds
4:15 AM 41.2 °F 32.1 °F 30.0 °F 65% 29.99 in 10.0 mi South 19.6 mph - N/A   Mostly Cloudy
4:35 AM 41.9 °F 32.3 °F 29.8 °F 62% 29.98 in 10.0 mi South 23.0 mph 27.6 mph N/A   Mostly Cloudy
4:55 AM 41.9 °F 31.9 °F 29.8 °F 62% 29.98 in 10.0 mi South 25.3 mph 29.9 mph N/A   Scattered Clouds
5:15 AM 41.7 °F 32.6 °F 30.2 °F 64% 29.98 in 10.0 mi South 20.7 mph 28.8 mph N/A   Clear
5:35 AM 41.2 °F 31.6 °F 30.2 °F 65% 29.98 in 10.0 mi South 21.9 mph 27.6 mph N/A   Scattered Clouds
5:55 AM 41.0 °F 31.6 °F 30.6 °F 66% 29.98 in 10.0 mi South 20.7 mph 27.6 mph N/A   Mostly Cloudy
6:15 AM 41.0 °F 32.8 °F 31.1 °F 68% 30.00 in 10.0 mi SSW 16.1 mph - N/A   Overcast
6:35 AM 41.4 °F 32.7 °F 31.1 °F 67% 30.01 in 10.0 mi South 18.4 mph - N/A   Overcast
6:55 AM 41.5 °F 33.5 °F 31.5 °F 67% 30.02 in 10.0 mi South 16.1 mph 24.2 mph N/A   Overcast
7:15 AM 41.5 °F 33.5 °F 32.0 °F 69% 30.03 in 10.0 mi SSW 16.1 mph - N/A   Overcast
7:35 AM 41.9 °F 35.0 °F 32.4 °F 69% 30.05 in 10.0 mi SSW 12.7 mph - N/A   Overcast
8:00 AM 41.4 °F 34.3 °F 41.4 °F 100% 30.06 in 10.0 mi WSW 12.7 mph - N/A   Overcast
8:15 AM 40.6 °F 32.3 °F 40.6 °F 100% 30.07 in 10.0 mi SW 16.1 mph - N/A   Overcast
8:35 AM 40.3 °F 30.4 °F 40.3 °F 100% 30.08 in 10.0 mi WSW 21.9 mph 27.6 mph N/A   Overcast
8:55 AM 40.1 °F 30.7 °F 40.1 °F 100% 30.10 in 10.0 mi WSW 19.6 mph 23.0 mph N/A   Overcast
9:15 AM 39.6 °F 29.7 °F 39.6 °F 100% 30.11 in 10.0 mi West 20.7 mph - N/A   Overcast
9:35 AM 39.0 °F 30.3 °F 39.0 °F 100% 30.12 in 10.0 mi West 16.1 mph - N/A   Overcast
9:55 AM 39.2 °F 30.5 °F 39.2 °F 100% 30.12 in 10.0 mi WSW 16.1 mph - N/A   Overcast
10:15 AM 41.0 °F 32.8 °F 41.0 °F 100% 30.13 in 10.0 mi WSW 16.1 mph 20.7 mph N/A   Overcast
10:35 AM 41.4 °F 33.0 °F 40.6 °F 97% 30.15 in 10.0 mi West 17.3 mph - N/A   Overcast
11:00 AM 41.9 °F 34.0 °F 40.3 °F 94% 30.16 in 10.0 mi WSW 16.1 mph - N/A   Overcast
11:15 AM 43.0 °F 35.4 °F 39.4 °F 87% 30.16 in 10.0 mi WSW 16.1 mph 19.6 mph N/A   Overcast
11:35 AM 43.2 °F 37.0 °F 39.6 °F 87% 30.17 in 10.0 mi West 11.5 mph - N/A   Overcast
11:55 AM 43.9 °F 36.8 °F 39.0 °F 83% 30.17 in 10.0 mi WSW 15.0 mph - N/A   Mostly Cloudy
12:15 PM 44.8 °F 39.4 °F 36.0 °F 71% 30.18 in 10.0 mi WSW 10.4 mph - N/A   Mostly Cloudy
12:35 PM 46.4 °F 41.1 °F 34.9 °F 64% 30.18 in 10.0 mi WSW 11.5 mph 18.4 mph N/A   Mostly Cloudy
12:55 PM 46.9 °F - 35.1 °F 63% 30.18 in 10.0 mi WSW 10.4 mph 18.4 mph N/A   Scattered Clouds
1:15 PM 48.7 °F - 35.6 °F 60% 30.18 in 10.0 mi West 11.5 mph 16.1 mph N/A   Scattered Clouds
1:35 PM 49.6 °F - 35.8 °F 59% 30.19 in 10.0 mi West 10.4 mph - N/A   Scattered Clouds
1:55 PM 50.4 °F - 36.1 °F 58% 30.19 in 10.0 mi West 11.5 mph 17.3 mph N/A   Scattered Clouds
2:20 PM 51.1 °F - 36.3 °F 57% 30.19 in 10.0 mi WNW 13.8 mph 19.6 mph N/A   Scattered Clouds
2:35 PM 51.4 °F - 36.0 °F 56% 30.19 in 10.0 mi West 9.2 mph - N/A   Scattered Clouds
2:55 PM 51.8 °F - 36.5 °F 56% 30.19 in 10.0 mi WNW 8.1 mph 16.1 mph N/A   Scattered Clouds
3:15 PM 52.9 °F - 36.1 °F 53% 30.19 in 10.0 mi West 13.8 mph 18.4 mph N/A   Scattered Clouds
3:35 PM 53.8 °F - 36.1 °F 51% 30.19 in 10.0 mi WSW 11.5 mph 17.3 mph N/A   Scattered Clouds
3:55 PM 54.1 °F - 36.3 °F 51% 30.19 in 10.0 mi WNW 10.4 mph 18.4 mph N/A   Clear
4:15 PM 55.2 °F - 36.1 °F 49% 30.19 in 10.0 mi WNW 9.2 mph - N/A   Scattered Clouds
4:35 PM 55.4 °F - 36.5 °F 49% 30.19 in 10.0 mi West 8.1 mph - N/A   Scattered Clouds
4:55 PM 55.6 °F - 36.0 °F 48% 30.19 in 10.0 mi WNW 4.6 mph - N/A   Clear
5:15 PM 54.9 °F - 35.8 °F 49% 30.20 in 10.0 mi WNW 6.9 mph - N/A   Clear
5:35 PM 55.2 °F - 35.2 °F 47% 30.20 in 10.0 mi WSW 4.6 mph - N/A   Clear
5:55 PM 55.0 °F - 35.8 °F 48% 30.20 in 10.0 mi West 9.2 mph - N/A   Clear
6:15 PM 54.5 °F - 35.6 °F 49% 30.20 in 10.0 mi West 5.8 mph - N/A   Clear
6:35 PM 53.8 °F - 35.4 °F 50% 30.20 in 10.0 mi West 8.1 mph - N/A   Clear
6:55 PM 52.7 °F - 35.2 °F 52% 30.21 in 10.0 mi WNW 9.2 mph - N/A   Clear
7:15 PM 51.6 °F - 35.6 °F 54% 30.21 in 10.0 mi West 8.1 mph - N/A   Clear
7:35 PM 50.9 °F - 35.2 °F 55% 30.22 in 10.0 mi West 6.9 mph - N/A   Clear
7:55 PM 49.5 °F - 35.2 °F 58% 30.22 in 10.0 mi West 8.1 mph - N/A   Clear
8:15 PM 49.3 °F - 35.2 °F 58% 30.22 in 10.0 mi WNW 8.1 mph - N/A   Clear
8:35 PM 49.1 °F - 35.2 °F 59% 30.23 in 10.0 mi West 6.9 mph - N/A   Clear
8:55 PM 48.0 °F - 35.2 °F 61% 30.24 in 10.0 mi West 8.1 mph - N/A   Clear
9:15 PM 47.3 °F - 35.4 °F 63% 30.24 in 10.0 mi West 10.4 mph - N/A   Clear
9:35 PM 46.4 °F 41.5 °F 35.1 °F 65% 30.25 in 10.0 mi West 10.4 mph - N/A   Clear
9:55 PM 45.5 °F 41.3 °F 34.9 °F 66% 30.25 in 10.0 mi WNW 8.1 mph - N/A   Mostly Cloudy
10:15 PM 44.1 °F 40.1 °F 35.2 °F 71% 30.25 in 10.0 mi NNW 6.9 mph - N/A   Overcast
10:35 PM 41.9 °F 36.3 °F 34.7 °F 76% 30.25 in 10.0 mi North 9.2 mph - N/A   Mostly Cloudy
10:55 PM 41.0 °F 35.2 °F 39.2 °F 93% 30.25 in 10.0 mi North 9.2 mph - N/A   Scattered Clouds
11:15 PM 39.9 °F 33.9 °F 39.2 °F 97% 30.26 in 10.0 mi North 9.2 mph - N/A   Scattered Clouds
11:35 PM 39.2 °F 32.5 °F 38.5 °F 97% 30.26 in 10.0 mi North 10.4 mph - N/A   Clear
11:55 PM 37.6 °F 31.6 °F 37.6 °F 100% 30.27 in 10.0 mi North 8.1 mph - N/A   Clear